TimeEST,TemperatureF,Dew PointF,Humidity,Sea Level PressureIn,VisibilityMPH,Wind Direction,Wind SpeedMPH,Gust SpeedMPH,PrecipitationIn,Events,Conditions,WindDirDegrees,DateUTC
12:52 AM,37.9,36.0,93,29.89,10.0,NNE,6.9,-,N/A,,Clear,20,2014-03-08 05:52:00
1:07 AM,37.9,36.0,93,29.87,10.0,Variable,5.8,-,N/A,,Partly Cloudy,0,2014-03-08 06:07:00
1:52 AM,37.9,36.0,93,29.85,10.0,NNE,8.1,-,N/A,,Mostly Cloudy,30,2014-03-08 06:52:00
2:52 AM,37.9,36.0,93,29.81,10.0,North,9.2,-,N/A,,Overcast,10,2014-03-08 07:52:00
3:52 AM,37.9,36.0,93,29.80,10.0,North,8.1,-,N/A,,Overcast,10,2014-03-08 08:52:00
4:17 AM,37.9,36.0,93,29.79,10.0,NNE,6.9,-,N/A,,Overcast,20,2014-03-08 09:17:00
4:27 AM,37.9,36.0,93,29.78,10.0,NNE,8.1,-,N/A,,Overcast,20,2014-03-08 09:27:00
4:52 AM,37.9,36.0,93,29.80,10.0,North,5.8,-,N/A,,Overcast,10,2014-03-08 09:52:00
5:35 AM,37.0,36.0,96,29.78,10.0,Variable,6.9,-,N/A,,Overcast,0,2014-03-08 10:35:00
5:52 AM,37.0,36.0,96,29.79,10.0,Variable,5.8,-,N/A,,Overcast,0,2014-03-08 10:52:00
6:52 AM,37.0,35.1,93,29.80,10.0,North,4.6,-,N/A,,Scattered Clouds,10,2014-03-08 11:52:00
7:52 AM,42.1,36.0,79,29.79,10.0,North,8.1,-,N/A,,Clear,10,2014-03-08 12:52:00
8:52 AM,43.0,36.0,76,29.78,10.0,NNW,9.2,-,N/A,,Clear,340,2014-03-08 13:52:00
9:52 AM,46.0,36.0,68,29.77,10.0,North,6.9,-,N/A,,Clear,360,2014-03-08 14:52:00
10:52 AM,45.0,34.0,65,29.76,10.0,Variable,5.8,-,N/A,,Clear,0,2014-03-08 15:52:00
11:52 AM,44.1,33.1,65,29.75,10.0,NW,9.2,19.6,N/A,,Clear,320,2014-03-08 16:52:00
12:52 PM,46.9,27.0,46,29.71,10.0,Variable,5.8,-,N/A,,Clear,0,2014-03-08 17:52:00
1:52 PM,48.0,25.0,41,29.70,10.0,Variable,5.8,-,N/A,,Clear,0,2014-03-08 18:52:00
2:52 PM,48.0,21.9,36,29.71,10.0,NNW,10.4,-,N/A,,Clear,330,2014-03-08 19:52:00
3:52 PM,48.0,23.0,37,29.72,10.0,North,6.9,-,N/A,,Scattered Clouds,10,2014-03-08 20:52:00
4:52 PM,41.0,32.0,70,29.73,10.0,SSW,4.6,-,N/A,,Mostly Cloudy,200,2014-03-08 21:52:00
5:52 PM,37.9,28.9,70,29.75,10.0,Calm,Calm,-,N/A,,Partly Cloudy,0,2014-03-08 22:52:00
6:52 PM,36.0,28.9,76,29.78,10.0,Calm,Calm,-,N/A,,Clear,0,2014-03-08 23:52:00
7:52 PM,33.1,28.0,82,29.79,10.0,Calm,Calm,-,N/A,,Clear,0,2014-03-09 00:52:00
8:52 PM,34.0,28.0,79,29.82,10.0,NNW,4.6,-,N/A,,Mostly Cloudy,340,2014-03-09 01:52:00
9:52 PM,37.0,26.1,65,29.83,10.0,Variable,4.6,-,N/A,,Scattered Clouds,0,2014-03-09 02:52:00
10:52 PM,37.9,30.0,73,29.84,10.0,North,6.9,-,N/A,,Partly Cloudy,350,2014-03-09 03:52:00
11:52 PM,36.0,30.0,79,29.85,10.0,Variable,4.6,-,N/A,,Scattered Clouds,0,2014-03-09 04:52:00